Погода в Аллами

Россия / Республика Бурятия     54°41′19″N   110°49′03″E
темп.,
°C
ветер,
м/с
пор.,
м/с
влажн.,
%
обл.,
%
осадки,
мм/ч
давл.,
гПа
погр.,
м
6 марта, сб
сб623:00−23с117376 0.0 103520
02:00−23с116888 0.0 103220
05:00−23св116433 0.0 103020
08:00−21ююз007267 0.0 102920
11:00−18ююв2290100 0.0 1027130
14:00−16ююв229495 0.1 1025240
17:00−16ююв119597 0.1 102575
20:00−19сз128360 0.1 102720
7 марта, вс
вс723:00−19сз128214 0.0 102721
02:00−20сз118325 0.1 102720
05:00−20сз11843 0.0 102620
08:00−18ссз019424 0.1 102520
11:00−13юв229476 0.1 1021184
14:00−10ююв229487 0.4 1018241
17:00−10ю119692 0.2 101677
20:00−13з118587 0.2 101721
8 марта, пн
пн823:00−13зсз128586 0.1 101721
02:00−12зюз118991 0.3 101621
05:00−12зюз1192100 0.4 101621
08:00−11зюз269198 0.7 1018358
11:00−9зюз7167198 0.3 10171880
14:00−9з8136660 0.4 10181910
17:00−11з368058 0.1 1021678
20:00−17зсз437738 0.1 102627
9 марта, вт
вт923:00−19сз43752 0.0 102924
02:00−20сз33732 0.0 103021
05:00−21сз116415 0.0 103020
08:00−19с116738 0.0 102922
11:00−14юв1173100 0.0 1025216
14:00−11юв2188100 0.0 1021195
17:00−11ююв1197100 0.1 101988
20:00−14з118972 0.1 102221
10 марта, ср
ср1023:00−16з128426 0.0 102220
02:00−17з118517 0.0 102220
05:00−18зсз22853 0.0 102321
08:00−16з22803 0.0 102621
11:00−11зюз146915 0.0 1026815
14:00−9юз12669 0.0 1027982
17:00−10зсз12819 0.1 1027175
20:00−16сз336615 0.1 103120